Weather History for Sydney, NW

Change the Weather History Date:

Thursday, June 13, 2013

  Actual Average Record
Temperature  
Mean Temperature 60 °F -  
Max Temperature 69 °F 63 °F 73 °F (2001)
Min Temperature 51 °F 46 °F 42 °F (1999)
Degree Days  
Heating Degree Days 5    
Growing Degree Days 10 (Base 50)    
Moisture  
Dew Point 48 °F    
Average Humidity 70    
Maximum Humidity 100    
Minimum Humidity 23    
Precipitation  
Precipitation 0.01 in 0.13 in - ()
Sea Level Pressure  
Sea Level Pressure 29.71 in    
Wind  
Wind Speed 10 mph ()    
Max Wind Speed 18 mph    
Max Gust Speed -    
Visibility 4.0 miles    
Events Fog    
Averages and records for this station are not official NWS values.
T = Trace of Precipitation, MM = Missing Value Source: Averaged Metar Reports

Daily Weather History Graph

Daily Weather History Graph

Search for Another Location

Airport:

Trip Planner

Search our weather history database for the weather conditions in past years. The results will help you decide how hot, cold, wet, or windy it might be!

Date:

Astronomy

Jun. 13, 2013 Rise Set
Actual Time 6:57 AM EST 4:52 PM EST
Civil Twilight 6:30 AM EST 5:20 PM EST
Nautical Twilight 5:58 AM EST 5:51 PM EST
Astronomical Twilight 5:28 AM EST 6:22 PM EST
Moon 9:47 AM EST (6/13) 8:59 PM EST (6/13)
Length of Visible Light 10h 50m
Length of Day
9h 54m
Waxing Crescent, 17% of the Moon is Illuminated
Jun 13
Waxing Crescent
Jun 17
First Quarter
Jun 23
Full
Jun 30
Last Quarter
Jul 8
New

Hourly Weather History & Observations

Time (EST) Temp. Dew Point Humidity Pressure Visibility Wind Dir Wind Speed Gust Speed Precip Events Conditions
12:00 AM 55 °F 53 °F 92% 29.78 in 1 mi NW 9.2 mph - - Fog Patches of Fog
12:00 AM 55.4 °F 53.6 °F 94% 29.77 in 1.6 mi NW 9.2 mph - N/A Fog Patches of Fog
12:30 AM 55.4 °F 53.6 °F 94% 29.77 in 0.5 mi NNW 8.1 mph - N/A Fog Fog
12:46 AM 53.6 °F 53.6 °F 100% 29.74 in 0.2 mi North 10.4 mph - N/A Fog Fog
1:00 AM 54 °F 53 °F 95% 29.77 in - NNW 9.2 mph - -  
1:00 AM 53.6 °F 53.6 °F 100% 29.74 in 0.2 mi NNW 9.2 mph - N/A Fog Fog
1:30 AM 53.6 °F 53.6 °F 100% 29.74 in 0.3 mi WNW 10.4 mph - N/A Fog Fog
2:00 AM 53.6 °F 51.8 °F 94% 29.74 in 0.2 mi NW 9.2 mph - N/A Fog Fog
2:30 AM 53.6 °F 51.8 °F 94% 29.74 in 0.2 mi WNW 10.4 mph - N/A Fog Fog
3:00 AM 52 °F 52 °F 98% 29.75 in 0 mi NW 8.1 mph - - Fog Heavy Fog
3:00 AM 51.8 °F 51.8 °F 100% 29.74 in 0.4 mi NW 8.1 mph - N/A Fog Fog
3:07 AM 51.8 °F 51.8 °F 100% 29.74 in 0.2 mi NW 8.1 mph - N/A Fog Fog
3:11 AM 51.8 °F 51.8 °F 100% 29.74 in 0.2 mi NW 8.1 mph - N/A Fog Fog
3:30 AM 51.8 °F 51.8 °F 100% 29.74 in 0.1 mi NW 6.9 mph - N/A Fog Fog
3:40 AM 51.8 °F 51.8 °F 100% 29.74 in 0.1 mi NNW 8.1 mph - N/A Fog Fog
3:50 AM 51.8 °F 51.8 °F 100% 29.74 in 0.1 mi NNW 8.1 mph - N/A Fog Fog
4:00 AM 52 °F 51 °F 96% 29.75 in - NW 9.2 mph - -  
4:00 AM 51.8 °F 51.8 °F 100% 29.74 in 0.2 mi NW 9.2 mph - N/A Fog Fog
4:11 AM 51.8 °F 51.8 °F 100% 29.74 in 1.2 mi NNW 9.2 mph - N/A   Mostly Cloudy
4:18 AM 51.8 °F 51.8 °F 100% 29.74 in 1.6 mi NW 9.2 mph - N/A Fog Patches of Fog
4:30 AM 51.8 °F 51.8 °F 100% 29.71 in 1.9 mi NW 9.2 mph - N/A Fog Patches of Fog
4:40 AM 51.8 °F 51.8 °F 100% 29.74 in 3.1 mi WNW 10.4 mph - N/A Fog Patches of Fog
4:46 AM 51.8 °F 51.8 °F 100% 29.74 in 3.7 mi NW 8.1 mph - N/A   Mostly Cloudy
5:00 AM 51.8 °F 51.8 °F 100% 29.74 in 0.7 mi NNW 8.1 mph - N/A Fog Patches of Fog
5:09 AM 51.8 °F 50.0 °F 94% 29.74 in 0.6 mi NNW 8.1 mph - N/A Fog Fog
5:17 AM 51.8 °F 50.0 °F 94% 29.74 in 0.4 mi NNW 8.1 mph - N/A Fog Fog
5:30 AM 51.8 °F 50.0 °F 94% 29.74 in 0.4 mi NNW 8.1 mph - N/A Fog Fog
5:41 AM 51.8 °F 50.0 °F 94% 29.74 in 0.9 mi NW 9.2 mph - N/A Fog Patches of Fog
6:00 AM 52 °F 51 °F 94% 29.75 in 3 mi NW 8.1 mph - -   Mist
6:00 AM 51.8 °F 50.0 °F 94% 29.74 in 3.1 mi NW 8.1 mph - N/A   Mostly Cloudy
6:30 AM 53.6 °F 50.0 °F 88% 29.74 in 3.1 mi WNW 8.1 mph - N/A   Mostly Cloudy
6:45 AM 53.6 °F 50.0 °F 88% 29.74 in 4.3 mi WNW 9.2 mph - N/A   Mostly Cloudy
7:00 AM 54 °F 51 °F 86% 29.75 in - NW 10.4 mph - -  
7:00 AM 53.6 °F 51.8 °F 94% 29.74 in 5.6 mi NW 10.4 mph - N/A   Mostly Cloudy
7:30 AM 53.6 °F 50.0 °F 88% 29.74 in 5.6 mi NW 10.4 mph - N/A   Mostly Cloudy
8:00 AM 55.4 °F 50.0 °F 82% 29.74 in 6.2 mi NNW 10.4 mph - N/A   Scattered Clouds
8:30 AM 57.2 °F 50.0 °F 77% 29.71 in 6.2 mi NNW 9.2 mph - N/A   Scattered Clouds
9:00 AM 59 °F 51 °F 68% 29.74 in 11 mi NW 10.4 mph - -   Haze
9:00 AM 59.0 °F 51.8 °F 77% 29.71 in 6.2 mi NW 10.4 mph - N/A   Partly Cloudy
9:30 AM 62.6 °F 51.8 °F 68% 29.71 in - NW 13.8 mph - N/A   Clear
10:00 AM 64 °F 50 °F 51% 29.73 in - NW 11.5 mph - -  
10:00 AM 64.4 °F 50.0 °F 59% 29.71 in - NW 11.5 mph - N/A   Clear
10:30 AM 66.2 °F 48.2 °F 52% 29.71 in 6.2 mi NNW 12.7 mph - N/A   Partly Cloudy
11:00 AM 66.2 °F 46.4 °F 49% 29.68 in 6.2 mi NW 15.0 mph - N/A   Partly Cloudy
11:30 AM 68.0 °F 46.4 °F 46% 29.68 in 6.2 mi NW 18.4 mph - N/A   Partly Cloudy
12:00 PM 67 °F 46 °F 36% 29.68 in 19 mi NNW 13.8 mph - -   Partly Cloudy
12:00 PM 68.0 °F 46.4 °F 46% 29.68 in 6.2 mi NNW 13.8 mph - N/A   Scattered Clouds
12:30 PM 68.0 °F 46.4 °F 46% 29.65 in 6.2 mi NNW 11.5 mph - N/A   Mostly Cloudy
1:00 PM 67 °F 43 °F 30% 29.66 in - NW 13.8 mph - -  
1:00 PM 68.0 °F 42.8 °F 40% 29.65 in 6.2 mi NW 13.8 mph - N/A   Scattered Clouds
1:30 PM 68.0 °F 41.0 °F 37% 29.65 in 6.2 mi WSW 8.1 mph - N/A   Scattered Clouds
1:38 PM 69.8 °F 41.0 °F 35% 29.65 in 6.2 mi NW 17.3 mph - N/A   Scattered Clouds
2:00 PM 68.0 °F 41.0 °F 37% 29.62 in 6.2 mi NW 18.4 mph - N/A   Scattered Clouds
2:30 PM 69.8 °F 39.2 °F 33% 29.62 in 6.2 mi WNW 12.7 mph - N/A   Scattered Clouds
3:00 PM 69 °F 40 °F 23% 29.65 in 16 mi NW 16.1 mph - -   Partly Cloudy
3:00 PM 69.8 °F 39.2 °F 33% 29.65 in - NW 16.1 mph - N/A   Clear
3:30 PM 69.8 °F 41.0 °F 35% 29.65 in - NW 16.1 mph - N/A   Clear
4:00 PM 67 °F 41 °F 27% 29.67 in - NW 13.8 mph - -  
4:00 PM 68.0 °F 41.0 °F 37% 29.65 in - NW 13.8 mph - N/A   Clear
4:30 PM 66.2 °F 42.8 °F 43% 29.65 in 6.2 mi NW 9.2 mph - N/A   Scattered Clouds
5:00 PM 66.2 °F 42.8 °F 43% 29.68 in 6.2 mi NW 9.2 mph - N/A   Scattered Clouds
5:30 PM 66.2 °F 42.8 °F 43% 29.68 in 6.2 mi NW 9.2 mph - N/A   Scattered Clouds
6:00 PM 65 °F 43 °F 34% 29.69 in 19 mi NW 12.7 mph - -   Partly Cloudy
6:00 PM 66.2 °F 42.8 °F 43% 29.68 in - NW 12.7 mph - N/A   Clear
6:30 PM 64.4 °F 44.6 °F 49% 29.68 in - NW 13.8 mph - N/A   Clear
7:00 PM 62 °F 44 °F 39% 29.70 in - NW 18.4 mph - -  
7:00 PM 62.6 °F 42.8 °F 48% 29.68 in - NW 18.4 mph - N/A   Clear
7:30 PM 60.8 °F 44.6 °F 55% 29.68 in - NW 17.3 mph - N/A   Clear
8:00 PM 60.8 °F 44.6 °F 55% 29.68 in - NW 17.3 mph - N/A   Clear
8:30 PM 60.8 °F 44.6 °F 55% 29.68 in - NW 15.0 mph - N/A   Clear
9:00 PM 59 °F 46 °F 51% 29.71 in 25 mi NW 12.7 mph - -   Partly Cloudy
9:00 PM 59.0 °F 46.4 °F 63% 29.71 in - NW 12.7 mph - N/A   Clear
9:30 PM 59.0 °F 44.6 °F 59% 29.71 in - NW 12.7 mph - N/A   Clear
10:00 PM 59 °F 44 °F 47% 29.72 in - NNW 16.1 mph - -  
10:00 PM 59.0 °F 44.6 °F 59% 29.71 in - NNW 16.1 mph - N/A   Clear
10:30 PM 59.0 °F 44.6 °F 59% 29.71 in - NNW 11.5 mph - N/A   Clear
11:00 PM 57.2 °F 44.6 °F 63% 29.68 in - North 10.4 mph - N/A   Clear
11:30 PM 57.2 °F 44.6 °F 63% 29.68 in - North 8.1 mph - N/A   Clear